Home   Weather   Steinkjer   Past weeks
Flag for Norway

Past Weather in Steinkjer, Norway — Yesterday and Last 2 Weeks

Now
28 °F

Chilly.


Feels Like: 28 °F
Forecast: 36 / 27 °F
Wind: 2 mph from Northwest

Location: Levanger-Eggen

Current Time: Mar 29, 2020 at 1:55:48 am

Latest Report: Mar 29, 2020 at 1:00 am


Visibility: N/A

Pressure: 30.45 "Hg

Humidity: 95%

Dew Point: 26 °F

Location of SteinkjerLocation

Past Weather in Steinkjer — Graph

°F

Steinkjer Temperature Yesterday

Maximum temperature yesterday: 36 °F (at 12:00 am)
Minimum temperature yesterday: 21 °F (at 10:00 pm)
Average temperature yesterday: 31 °F

High & Low Weather Summary for the Past Weeks

 TemperatureHumidityPressure
High46 °F (Mar 26, 2:00 pm)98% (Mar 26, 7:00 am)30.65 "Hg (Mar 26, 7:00 am)
Low18 °F (Mar 14, 5:00 am)36% (Mar 23, 9:00 pm)29.09 "Hg (Mar 15, 4:00 pm)
Average35 °F77%30.00 "Hg
* Reported Mar 14 12:00 am — Mar 29 12:00 am, Steinkjer. Weather by CustomWeather, © 2020

Note: Actual official high and low records may vary slightly from our data, if they occured in-between our weather recording intervals... More about our weather records

Steinkjer Weather History for the Previous 24 Hours

Scroll right to see more
 ConditionsComfort  
Time TempWeatherWind HumidityBarometerVisibility
12:00 am
Sun, Mar 29
27 °FChilly.3 mph91%30.45 "HgN/A
11:00 pm
Sat, Mar 28
27 °FChilly.3 mph96%30.46 "HgN/A
10:00 pm21 °FCold.1 mph95%30.46 "HgN/A
9:00 pm25 °FChilly.1 mph92%30.47 "HgN/A
8:00 pm26 °FChilly.2 mph81%30.46 "HgN/A
7:00 pm28 °FChilly.5 mph82%30.46 "HgN/A
6:00 pm29 °FChilly.2 mph73%30.44 "HgN/A
5:00 pm28 °FChilly.3 mph78%30.43 "HgN/A
4:00 pm31 °FChilly.2 mph74%30.41 "HgN/A
3:00 pm31 °FChilly.7 mph70%30.41 "HgN/A
2:00 pm33 °FChilly.2 mph63%30.40 "HgN/A
1:00 pm35 °FChilly.3 mph52%30.38 "HgN/A
12:00 pm29 °FChilly.8 mph74%30.37 "HgN/A
11:00 am34 °FChilly.2 mph71%30.35 "HgN/A
10:00 am31 °FChilly.3 mph80%30.33 "HgN/A
9:00 am31 °FChilly.2 mph78%30.30 "HgN/A
8:00 am31 °FChilly.2 mph86%30.27 "HgN/A
7:00 am30 °FChilly.3 mph90%30.25 "HgN/A
6:00 am32 °FChilly.6 mph75%30.23 "HgN/A
5:00 am32 °FChilly.2 mph78%30.19 "HgN/A
4:00 am33 °FChilly.1 mph87%30.17 "HgN/A
3:00 am33 °FChilly.2 mph91%30.15 "HgN/A
2:00 am34 °FChilly.5 mph90%30.14 "HgN/A
1:00 am35 °FChilly.7 mph88%30.12 "HgN/A
Weather by CustomWeather, © 2020

See weather overview

Advertising